Location: Brunsen
(51.8651°N, 9.8610°E)
Time: 14:46:42
(UTC+00:00)

Cosmos 2219 Rocket - Pass Details

Date: 23 May 2024
Orbit: 827 x 846 km, 71.0° (Epoch: 13 June)

Event Time Altitude Azimuth Distance (km) Brightness Sun altitude
Rises 01:47:49 0° 329° (NNW) 3,399 5.7 -10.4°
Reaches altitude 10° 01:50:17 10° 331° (NNW) 2,464 5.0 -10.2°
Maximum altitude 01:55:57 76° 57° (ENE) 873 2.5 -9.6°
Drops below altitude 10° 02:01:36 10° 144° (SE) 2,461 4.5 -9.1°
Sets 02:04:03 0° 146° (SE) 3,394 5.2 -8.9°
